User: anonymous   Login
Location: Unspecified
(37.0481°N, 0.0000°E)
Time: 19:06:55
(UTC+00:00)
Language:

CSO-1 - Orbit

View from above orbital plane
View from above orbital plane
View from above satellite
View from above satellite

Ground track
Ground track

The orbit is defined by the following mean orbital elements,

1 43866U 18106A   25282.10864139 0.00000000  00000-0  00000-0 0    07
2 43866  98.6175 220.4900 0003489 154.8441 205.1558 14.26736736    04
Epoch (UTC): 09 October 2025 02:36:26
Eccentricity: 0.0003489
inclination: 98.6175°
perigee height: 800 km
apogee height: 805 km
right ascension of ascending node: 220.4900°
argument of perigee: 154.8441°
revolutions per day: 14.26736736
mean anomaly at epoch: 205.1558°

The dashed part of the orbit path shows where the satellite is in the earth's shadow,  

DLR